Time,TemperatureF,DewpointF,PressureIn,WindDirection,WindDirectionDegrees,WindSpeedMPH,WindSpeedGustMPH,Humidity,HourlyPrecipIn,Conditions,Clouds,dailyrainin,SolarRadiationWatts/m^2,SoftwareType,DateUTC
2016-08-24 00:02:00,70.1,65.4,30.24,SSE,161,0.0,9.0,85,0.00,,FEW070,0.00,0.00,VWS V15.00,2016-08-24 04:02:00,
2016-08-24 00:07:00,69.9,65.2,30.24,SSE,161,0.0,9.0,85,0.00,,FEW070,0.00,0.00,VWS V15.00,2016-08-24 04:07:00,
2016-08-24 00:12:00,69.7,65.3,30.24,SSE,161,0.0,9.0,86,0.00,,FEW070,0.00,0.00,VWS V15.00,2016-08-24 04:12:00,
2016-08-24 00:17:00,69.6,65.2,30.24,SSE,161,0.0,9.0,86,0.00,,FEW070,0.00,0.00,VWS V15.00,2016-08-24 04:17:00,
2016-08-24 00:27:00,69.3,65.3,30.23,SSE,161,0.0,9.0,87,0.00,,FEW070,0.00,0.00,VWS V15.00,2016-08-24 04:27:00,
2016-08-24 00:32:00,69.3,65.3,30.23,SSE,161,0.0,9.0,87,0.00,,FEW070,0.00,0.00,VWS V15.00,2016-08-24 04:32:00,
2016-08-24 00:37:00,69.2,65.2,30.23,SSE,161,0.0,9.0,87,0.00,,FEW070,0.00,0.00,VWS V15.00,2016-08-24 04:37:00,
2016-08-24 00:42:00,69.1,65.1,30.23,SSE,161,0.0,9.0,87,0.00,,FEW070,0.00,0.00,VWS V15.00,2016-08-24 04:42:00,
2016-08-24 00:47:00,69.1,65.1,30.23,SSE,161,0.0,9.0,87,0.00,,FEW070,0.00,0.00,VWS V15.00,2016-08-24 04:47:00,
2016-08-24 00:53:00,69.0,65.0,30.23,SSE,161,0.0,9.0,87,0.00,,FEW070,0.00,0.00,VWS V15.00,2016-08-24 04:53:00,
2016-08-24 00:58:00,69.0,64.6,30.23,SSE,161,0.0,9.0,86,0.00,,FEW070,0.00,0.00,VWS V15.00,2016-08-24 04:58:00,
2016-08-24 01:03:00,68.9,64.6,30.23,SSE,161,0.0,9.0,86,0.00,,FEW070,0.00,0.00,VWS V15.00,2016-08-24 05:03:00,
2016-08-24 01:08:00,68.9,64.6,30.23,SSE,161,0.0,9.0,86,0.00,,FEW070,0.00,0.00,VWS V15.00,2016-08-24 05:08:00,
2016-08-24 01:18:00,68.8,64.1,30.23,SSE,161,0.0,9.0,85,0.00,,FEW070,0.00,0.00,VWS V15.00,2016-08-24 05:18:00,
2016-08-24 01:23:00,68.8,64.1,30.23,SSE,161,0.0,9.0,85,0.00,,FEW070,0.00,0.00,VWS V15.00,2016-08-24 05:23:00,
2016-08-24 01:28:00,68.7,64.0,30.23,SSE,161,0.0,9.0,85,0.00,,FEW070,0.00,0.00,VWS V15.00,2016-08-24 05:28:00,
2016-08-24 01:33:00,68.7,64.0,30.23,SSE,161,0.0,9.0,85,0.00,,FEW070,0.00,0.00,VWS V15.00,2016-08-24 05:33:00,
2016-08-24 01:38:00,68.6,63.9,30.23,SSE,161,0.0,9.0,85,0.00,,FEW070,0.00,0.00,VWS V15.00,2016-08-24 05:38:00,
2016-08-24 01:43:00,68.5,63.8,30.23,SSE,161,0.0,9.0,85,0.00,,FEW070,0.00,0.00,VWS V15.00,2016-08-24 05:43:00,
2016-08-24 01:48:00,68.4,63.4,30.23,SSE,161,0.0,9.0,84,0.00,,FEW070,0.00,0.00,VWS V15.00,2016-08-24 05:48:00,
2016-08-24 01:53:00,68.3,63.6,30.23,SSE,161,0.0,9.0,85,0.00,,FEW070,0.00,0.00,VWS V15.00,2016-08-24 05:53:00,
2016-08-24 01:59:00,68.1,63.4,30.23,SSE,161,0.0,9.0,85,0.00,,FEW070,0.00,0.00,VWS V15.00,2016-08-24 05:59:00,
2016-08-24 02:04:00,68.0,63.3,30.23,SSE,161,0.0,9.0,85,0.00,,FEW070,0.00,0.00,VWS V15.00,2016-08-24 06:04:00,
2016-08-24 02:09:00,67.8,63.5,30.23,SSE,161,0.0,9.0,86,0.00,,FEW070,0.00,0.00,VWS V15.00,2016-08-24 06:09:00,
2016-08-24 02:14:00,67.7,63.4,30.23,SSE,161,0.0,9.0,86,0.00,,FEW070,0.00,0.00,VWS V15.00,2016-08-24 06:14:00,
2016-08-24 02:19:00,67.6,63.6,30.23,SSE,161,0.0,9.0,87,0.00,,FEW070,0.00,0.00,VWS V15.00,2016-08-24 06:19:00,
2016-08-24 02:24:00,67.5,63.5,30.23,SSE,161,0.0,9.0,87,0.00,,FEW070,0.00,0.00,VWS V15.00,2016-08-24 06:24:00,
2016-08-24 02:29:00,67.4,63.4,30.23,SSE,161,0.0,9.0,87,0.00,,FEW070,0.00,0.00,VWS V15.00,2016-08-24 06:29:00,
2016-08-24 02:34:00,67.3,63.6,30.23,SSE,161,0.0,9.0,88,0.00,,FEW070,0.00,0.00,VWS V15.00,2016-08-24 06:34:00,
2016-08-24 02:39:00,67.4,63.7,30.22,SSE,161,0.0,9.0,88,0.00,,FEW070,0.00,0.00,VWS V15.00,2016-08-24 06:39:00,
2016-08-24 02:44:00,67.4,63.7,30.22,SSE,161,1.5,9.0,88,0.00,,FEW070,0.00,0.00,VWS V15.00,2016-08-24 06:44:00,
2016-08-24 02:49:00,67.4,63.7,30.22,SSE,161,0.0,9.0,88,0.00,,FEW070,0.00,0.00,VWS V15.00,2016-08-24 06:49:00,
2016-08-24 02:54:00,67.6,63.9,30.22,SSE,161,0.0,9.0,88,0.00,,FEW070,0.00,0.00,VWS V15.00,2016-08-24 06:54:00,
2016-08-24 02:59:00,67.7,64.0,30.22,SSE,161,0.0,9.0,88,0.00,,FEW070,0.00,0.00,VWS V15.00,2016-08-24 06:59:00,
2016-08-24 03:05:00,67.8,64.1,30.22,SSE,161,0.0,9.0,88,0.00,,FEW070,0.00,0.00,VWS V15.00,2016-08-24 07:05:00,
2016-08-24 03:10:00,67.9,64.2,30.22,SSE,161,0.0,9.0,88,0.00,,FEW070,0.00,0.00,VWS V15.00,2016-08-24 07:10:00,
2016-08-24 03:15:00,68.0,64.3,30.22,SSE,158,0.0,9.0,88,0.00,,FEW070,0.00,0.00,VWS V15.00,2016-08-24 07:15:00,
2016-08-24 03:20:00,68.2,64.5,30.22,SSE,158,0.0,9.0,88,0.00,,FEW070,0.00,0.00,VWS V15.00,2016-08-24 07:20:00,
2016-08-24 03:25:00,68.4,64.4,30.22,SSE,160,0.0,9.0,87,0.00,,FEW070,0.00,0.00,VWS V15.00,2016-08-24 07:25:00,
2016-08-24 03:30:00,68.5,64.5,30.21,SSE,160,0.0,9.0,87,0.00,,FEW070,0.00,0.00,VWS V15.00,2016-08-24 07:30:00,
2016-08-24 03:35:00,68.6,64.6,30.21,SSE,160,1.5,9.0,87,0.00,,FEW070,0.00,0.00,VWS V15.00,2016-08-24 07:35:00,
2016-08-24 03:40:00,68.8,64.4,30.21,SSE,160,0.0,9.0,86,0.00,,FEW070,0.00,0.00,VWS V15.00,2016-08-24 07:40:00,
2016-08-24 03:45:00,68.9,64.6,30.20,SSE,160,1.5,9.0,86,0.00,,FEW070,0.00,0.00,VWS V15.00,2016-08-24 07:45:00,
2016-08-24 03:50:00,69.0,64.6,30.20,SSE,160,0.0,9.0,86,0.00,,FEW070,0.00,0.00,VWS V15.00,2016-08-24 07:50:00,
2016-08-24 03:55:00,69.0,64.6,30.20,SSE,160,0.0,9.0,86,0.00,,FEW070,0.00,0.00,VWS V15.00,2016-08-24 07:55:00,
2016-08-24 04:00:00,69.0,64.6,30.20,SSE,160,0.0,9.0,86,0.00,,FEW070,0.00,0.00,VWS V15.00,2016-08-24 08:00:00,
2016-08-24 04:05:00,69.1,64.7,30.20,SSE,160,0.0,9.0,86,0.00,,FEW070,0.00,0.00,VWS V15.00,2016-08-24 08:05:00,
2016-08-24 04:10:00,69.1,64.7,30.20,SSE,160,0.0,9.0,86,0.00,,FEW070,0.00,0.00,VWS V15.00,2016-08-24 08:10:00,
2016-08-24 04:15:00,69.2,64.8,30.20,SSE,160,1.5,9.0,86,0.00,,FEW070,0.00,0.00,VWS V15.00,2016-08-24 08:15:00,
2016-08-24 04:21:00,69.2,64.8,30.20,SSE,160,0.0,9.0,86,0.00,,FEW070,0.00,0.00,VWS V15.00,2016-08-24 08:21:00,
2016-08-24 04:26:00,69.2,64.8,30.20,SSE,160,0.0,9.0,86,0.00,,FEW070,0.00,0.00,VWS V15.00,2016-08-24 08:26:00,
2016-08-24 04:36:00,69.2,65.2,30.20,SSE,160,0.0,9.0,87,0.00,,FEW070,0.00,0.00,VWS V15.00,2016-08-24 08:36:00,
2016-08-24 04:41:00,69.1,65.1,30.20,SSE,160,0.0,9.0,87,0.00,,FEW070,0.00,0.00,VWS V15.00,2016-08-24 08:41:00,
2016-08-24 04:46:00,69.0,65.0,30.21,SSE,160,0.0,9.0,87,0.00,,FEW070,0.00,0.00,VWS V15.00,2016-08-24 08:46:00,
2016-08-24 04:51:00,68.8,65.1,30.21,SSE,160,0.0,9.0,88,0.00,,FEW070,0.00,0.00,VWS V15.00,2016-08-24 08:51:00,
2016-08-24 04:56:00,68.6,64.9,30.21,SSE,160,0.0,9.0,88,0.00,,FEW070,0.00,0.00,VWS V15.00,2016-08-24 08:56:00,
2016-08-24 05:01:00,68.4,65.0,30.22,SSE,160,0.0,9.0,89,0.00,,FEW070,0.00,0.00,VWS V15.00,2016-08-24 09:01:00,
2016-08-24 05:06:00,68.2,64.8,30.22,SSE,160,0.0,9.0,89,0.00,,FEW070,0.00,0.00,VWS V15.00,2016-08-24 09:06:00,
2016-08-24 05:11:00,68.0,64.6,30.21,SSE,160,0.0,9.0,89,0.00,,FEW070,0.00,0.00,VWS V15.00,2016-08-24 09:11:00,
2016-08-24 05:16:00,67.8,64.4,30.21,SSE,160,0.0,9.0,89,0.00,,FEW070,0.00,0.00,VWS V15.00,2016-08-24 09:16:00,
2016-08-24 05:21:00,67.5,64.2,30.21,SSE,160,0.0,9.0,89,0.00,,FEW070,0.00,0.00,VWS V15.00,2016-08-24 09:21:00,
2016-08-24 05:42:00,66.8,64.1,30.21,SSE,160,0.0,9.0,91,0.00,,FEW070,0.00,0.00,VWS V15.00,2016-08-24 09:42:00,
2016-08-24 05:47:00,66.6,63.9,30.20,SSE,160,0.0,9.0,91,0.00,,FEW070,0.00,0.00,VWS V15.00,2016-08-24 09:47:00,
2016-08-24 05:52:00,66.5,64.1,30.21,SSE,160,0.0,9.0,92,0.00,,FEW070,0.00,0.00,VWS V15.00,2016-08-24 09:52:00,
2016-08-24 05:57:00,66.3,63.9,30.21,SSE,160,0.0,9.0,92,0.00,,FEW070,0.00,0.00,VWS V15.00,2016-08-24 09:57:00,
2016-08-24 06:02:00,66.1,63.7,30.21,SSE,160,0.0,9.0,92,0.00,,FEW070,0.00,0.00,VWS V15.00,2016-08-24 10:02:00,
2016-08-24 06:07:00,66.1,64.0,30.21,SSE,160,0.0,9.0,93,0.00,,FEW070,0.00,0.00,VWS V15.00,2016-08-24 10:07:00,
2016-08-24 06:12:00,66.0,63.9,30.21,SSE,160,0.0,9.0,93,0.00,,FEW070,0.00,0.00,VWS V15.00,2016-08-24 10:12:00,
2016-08-24 06:17:00,65.9,63.8,30.21,SSE,160,0.0,9.0,93,0.00,,FEW070,0.00,0.00,VWS V15.00,2016-08-24 10:17:00,
2016-08-24 06:22:00,65.9,63.8,30.20,SSE,160,0.0,9.0,93,0.00,,FEW070,0.00,0.00,VWS V15.00,2016-08-24 10:22:00,
2016-08-24 06:27:00,65.9,64.1,30.21,SSE,160,0.0,9.0,94,0.00,,FEW070,0.00,0.00,VWS V15.00,2016-08-24 10:27:00,
2016-08-24 06:32:00,65.9,64.1,30.21,SSE,160,0.0,9.0,94,0.00,,FEW070,0.00,0.00,VWS V15.00,2016-08-24 10:32:00,
2016-08-24 06:37:00,66.0,64.2,30.20,SSE,160,0.0,9.0,94,0.00,,FEW070,0.00,0.00,VWS V15.00,2016-08-24 10:37:00,
2016-08-24 06:42:00,66.1,64.3,30.21,SSE,160,0.0,9.0,94,0.00,,FEW070,0.00,0.00,VWS V15.00,2016-08-24 10:42:00,
2016-08-24 06:48:00,66.1,64.3,30.21,SSE,160,0.0,9.0,94,0.00,,FEW070,0.00,0.00,VWS V15.00,2016-08-24 10:48:00,
2016-08-24 06:53:00,66.2,64.4,30.21,SSE,160,0.0,9.0,94,0.00,,FEW070,0.00,0.00,VWS V15.00,2016-08-24 10:53:00,
2016-08-24 06:58:00,66.3,64.2,30.21,SSE,160,0.0,9.0,93,0.00,,FEW070,0.00,0.00,VWS V15.00,2016-08-24 10:58:00,
2016-08-24 07:03:00,66.4,64.3,30.21,SSE,160,1.5,9.0,93,0.00,,FEW070,0.00,5.00,VWS V15.00,2016-08-24 11:03:00,
2016-08-24 07:08:00,66.5,64.4,30.21,SE,134,3.0,9.0,93,0.00,,FEW070,0.00,9.00,VWS V15.00,2016-08-24 11:08:00,
2016-08-24 07:13:00,66.6,64.2,30.22,SE,134,0.0,9.0,92,0.00,,FEW070,0.00,18.00,VWS V15.00,2016-08-24 11:13:00,
2016-08-24 07:18:00,66.7,64.3,30.22,SSE,166,1.5,9.0,92,0.00,,FEW070,0.00,26.00,VWS V15.00,2016-08-24 11:18:00,
2016-08-24 07:23:00,67.0,64.6,30.22,SSE,155,1.5,9.0,92,0.00,,FEW070,0.00,32.00,VWS V15.00,2016-08-24 11:23:00,
2016-08-24 07:28:00,67.2,64.5,30.22,SSE,163,0.0,9.0,91,0.00,,FEW070,0.00,40.00,VWS V15.00,2016-08-24 11:28:00,
2016-08-24 07:33:00,67.4,64.4,30.22,SSE,163,0.0,9.0,90,0.00,,FEW070,0.00,46.00,VWS V15.00,2016-08-24 11:33:00,
2016-08-24 07:38:00,67.7,64.7,30.22,SE,140,4.5,9.0,90,0.00,,FEW070,0.00,56.00,VWS V15.00,2016-08-24 11:38:00,
2016-08-24 07:43:00,68.0,64.6,30.23,SE,140,0.0,9.0,89,0.00,,FEW070,0.00,60.00,VWS V15.00,2016-08-24 11:43:00,
2016-08-24 07:48:00,68.2,64.8,30.23,SE,140,0.0,9.0,89,0.00,,FEW070,0.00,69.00,VWS V15.00,2016-08-24 11:48:00,
2016-08-24 07:59:00,68.6,64.9,30.23,SE,126,3.0,9.0,88,0.00,,FEW070,0.00,90.00,VWS V15.00,2016-08-24 11:59:00,
2016-08-24 08:04:00,68.8,65.1,30.22,SE,138,0.0,9.0,88,0.00,,FEW070,0.00,102.00,VWS V15.00,2016-08-24 12:04:00,
2016-08-24 08:09:00,69.0,65.3,30.23,SSE,147,0.0,9.0,88,0.00,,FEW070,0.00,109.00,VWS V15.00,2016-08-24 12:09:00,
2016-08-24 08:14:00,69.3,65.6,30.23,SSE,159,0.0,9.0,88,0.00,,FEW070,0.00,111.00,VWS V15.00,2016-08-24 12:14:00,
2016-08-24 08:24:00,69.8,65.8,30.23,South,174,0.0,9.0,87,0.00,,FEW070,0.00,128.00,VWS V15.00,2016-08-24 12:24:00,
2016-08-24 08:29:00,70.1,65.7,30.23,ESE,111,1.5,9.0,86,0.00,,FEW070,0.00,113.00,VWS V15.00,2016-08-24 12:29:00,
2016-08-24 08:34:00,70.3,65.9,30.23,ESE,105,0.0,9.0,86,0.00,,FEW070,0.00,114.00,VWS V15.00,2016-08-24 12:34:00,
2016-08-24 08:39:00,70.5,65.8,30.23,SSW,211,0.0,9.0,85,0.00,,FEW070,0.00,114.00,VWS V15.00,2016-08-24 12:39:00,
2016-08-24 08:44:00,70.7,66.0,30.23,SSE,161,3.0,9.0,85,0.00,,FEW070,0.00,123.00,VWS V15.00,2016-08-24 12:44:00,
2016-08-24 08:49:00,70.8,66.1,30.23,South,173,0.0,9.0,85,0.00,,FEW070,0.00,132.00,VWS V15.00,2016-08-24 12:49:00,
2016-08-24 08:54:00,70.9,66.2,30.22,South,188,1.5,9.0,85,0.00,,FEW070,0.00,149.00,VWS V15.00,2016-08-24 12:54:00,
2016-08-24 09:05:00,71.4,66.7,30.23,SE,143,4.5,9.0,85,0.00,,FEW070,0.00,241.00,VWS V15.00,2016-08-24 13:05:00,
2016-08-24 09:10:00,71.7,66.9,30.22,SE,134,0.0,9.0,85,0.00,,FEW070,0.00,246.00,VWS V15.00,2016-08-24 13:10:00,
2016-08-24 09:15:00,72.2,67.1,30.22,SE,130,3.0,9.0,84,0.00,,FEW070,0.00,229.00,VWS V15.00,2016-08-24 13:15:00,
2016-08-24 09:20:00,72.5,67.1,30.22,South,184,1.5,9.0,83,0.00,,FEW070,0.00,214.00,VWS V15.00,2016-08-24 13:20:00,
2016-08-24 09:25:00,72.7,67.2,30.22,SE,126,6.0,9.0,83,0.00,,FEW070,0.00,239.00,VWS V15.00,2016-08-24 13:25:00,
2016-08-24 09:30:00,73.0,67.2,30.21,SE,126,3.0,9.0,82,0.00,,FEW070,0.00,352.00,VWS V15.00,2016-08-24 13:30:00,
2016-08-24 09:35:00,73.4,67.6,30.21,SSE,157,7.5,9.0,82,0.00,,FEW070,0.00,336.00,VWS V15.00,2016-08-24 13:35:00,
2016-08-24 09:40:00,73.8,67.6,30.21,South,171,6.0,9.0,81,0.00,,FEW070,0.00,308.00,VWS V15.00,2016-08-24 13:40:00,
2016-08-24 09:45:00,74.2,68.0,30.22,South,175,3.0,9.0,81,0.00,,FEW070,0.00,178.00,VWS V15.00,2016-08-24 13:45:00,
2016-08-24 09:50:00,74.4,67.8,30.22,SSE,164,0.0,9.0,80,0.00,,FEW070,0.00,134.00,VWS V15.00,2016-08-24 13:50:00,
2016-08-24 09:55:00,74.6,68.0,30.22,SW,218,0.0,9.0,80,0.00,,FEW070,0.00,183.00,VWS V15.00,2016-08-24 13:55:00,
2016-08-24 10:01:00,74.8,68.2,30.21,SE,133,1.5,9.0,80,0.00,,FEW070,0.00,239.00,VWS V15.00,2016-08-24 14:01:00,
2016-08-24 10:06:00,75.0,68.4,30.22,SSE,151,6.0,9.0,80,0.00,,FEW070,0.00,234.00,VWS V15.00,2016-08-24 14:06:00,
2016-08-24 10:11:00,75.3,69.1,30.22,SSE,167,0.0,9.0,81,0.00,,FEW070,0.00,248.00,VWS V15.00,2016-08-24 14:11:00,
2016-08-24 10:16:00,75.5,69.3,30.22,SW,231,3.0,9.0,81,0.00,,FEW070,0.00,285.00,VWS V15.00,2016-08-24 14:16:00,
2016-08-24 10:21:00,75.7,69.1,30.22,SW,228,3.0,9.0,80,0.00,,FEW070,0.00,281.00,VWS V15.00,2016-08-24 14:21:00,
2016-08-24 10:26:00,75.9,69.3,30.22,SSE,160,3.0,9.0,80,0.00,,FEW070,0.00,285.00,VWS V15.00,2016-08-24 14:26:00,
2016-08-24 10:31:00,76.0,69.4,30.22,SE,136,4.5,9.0,80,0.00,,FEW070,0.00,264.00,VWS V15.00,2016-08-24 14:31:00,
2016-08-24 10:36:00,76.1,69.5,30.22,SE,141,7.5,9.0,80,0.00,,FEW070,0.00,313.00,VWS V15.00,2016-08-24 14:36:00,
2016-08-24 10:42:00,76.3,70.1,30.22,ESE,115,4.5,9.0,81,0.00,,FEW070,0.00,283.00,VWS V15.00,2016-08-24 14:42:00,
2016-08-24 10:47:00,76.4,70.1,30.22,South,176,0.0,9.0,81,0.00,,FEW070,0.00,287.00,VWS V15.00,2016-08-24 14:47:00,
2016-08-24 10:52:00,76.6,70.0,30.22,WSW,245,4.5,9.0,80,0.00,,FEW070,0.00,243.00,VWS V15.00,2016-08-24 14:52:00,
2016-08-24 10:57:00,76.6,70.0,30.21,South,169,0.0,9.0,80,0.00,,FEW070,0.00,229.00,VWS V15.00,2016-08-24 14:57:00,
2016-08-24 11:02:00,76.7,70.4,30.21,WSW,246,1.5,9.0,81,0.00,,FEW070,0.00,255.00,VWS V15.00,2016-08-24 15:02:00,
2016-08-24 11:07:00,76.9,70.3,30.21,SSW,194,1.5,9.0,80,0.00,,FEW070,0.00,336.00,VWS V15.00,2016-08-24 15:07:00,
2016-08-24 11:12:00,77.1,70.8,30.21,SW,235,0.0,9.0,81,0.00,,FEW070,0.00,341.00,VWS V15.00,2016-08-24 15:12:00,
2016-08-24 11:17:00,77.5,71.2,30.21,SW,219,0.0,9.0,81,0.00,,FEW070,0.00,376.00,VWS V15.00,2016-08-24 15:17:00,
2016-08-24 11:22:00,77.8,71.1,30.20,West,264,3.0,9.0,80,0.00,,FEW070,0.00,387.00,VWS V15.00,2016-08-24 15:22:00,
2016-08-24 11:28:00,78.1,71.4,30.20,SW,228,9.0,9.0,80,0.00,,FEW070,0.00,390.00,VWS V15.00,2016-08-24 15:28:00,
2016-08-24 11:33:00,78.3,71.3,30.20,SW,218,3.0,9.0,79,0.00,,FEW070,0.00,452.00,VWS V15.00,2016-08-24 15:33:00,
2016-08-24 11:38:00,78.7,72.0,30.20,SE,130,6.0,9.0,80,0.00,,FEW070,0.00,438.00,VWS V15.00,2016-08-24 15:38:00,
2016-08-24 11:48:00,79.9,72.8,30.20,SW,223,4.5,9.0,79,0.00,,FEW070,0.00,761.00,VWS V15.00,2016-08-24 15:48:00,
2016-08-24 11:53:00,80.6,73.1,30.20,SSE,165,6.0,9.0,78,0.00,,FEW070,0.00,656.00,VWS V15.00,2016-08-24 15:53:00,
2016-08-24 12:03:00,81.9,73.6,30.19,South,184,3.0,9.0,76,0.00,,FEW070,0.00,415.00,VWS V15.00,2016-08-24 16:03:00,
2016-08-24 12:13:00,82.7,74.0,30.20,SW,231,12.0,12.0,75,0.00,,FEW070,0.00,506.00,VWS V15.00,2016-08-24 16:13:00,
2016-08-24 12:23:00,82.7,74.0,30.19,SE,145,1.5,9.0,75,0.00,,FEW070,0.00,320.00,VWS V15.00,2016-08-24 16:23:00,
2016-08-24 12:28:00,82.5,74.2,30.19,SE,138,6.0,9.0,76,0.00,,FEW070,0.00,378.00,VWS V15.00,2016-08-24 16:28:00,
2016-08-24 12:33:00,82.6,74.7,30.18,SSE,148,6.0,9.0,77,0.00,,FEW070,0.00,374.00,VWS V15.00,2016-08-24 16:33:00,
2016-08-24 12:39:00,83.1,75.2,30.18,WSW,250,4.5,9.0,77,0.00,,FEW070,0.00,650.00,VWS V15.00,2016-08-24 16:39:00,
2016-08-24 12:44:00,83.6,74.8,30.19,SSW,211,3.0,9.0,75,0.00,,FEW070,0.00,439.00,VWS V15.00,2016-08-24 16:44:00,
2016-08-24 12:49:00,83.9,75.1,30.18,South,173,9.0,9.0,75,0.00,,FEW070,0.00,406.00,VWS V15.00,2016-08-24 16:49:00,
2016-08-24 12:54:00,84.1,75.3,30.18,SSW,200,3.0,9.0,75,0.00,,FEW070,0.00,524.00,VWS V15.00,2016-08-24 16:54:00,
2016-08-24 12:59:00,84.3,75.5,30.18,WSW,244,3.0,9.0,75,0.00,,FEW070,0.00,889.00,VWS V15.00,2016-08-24 16:59:00,
2016-08-24 13:04:00,84.9,75.7,30.17,South,170,7.5,9.0,74,0.00,,FEW070,0.00,684.00,VWS V15.00,2016-08-24 17:04:00,
2016-08-24 13:09:00,85.5,76.7,30.17,SSE,163,3.0,9.0,75,0.00,,FEW070,0.00,954.00,VWS V15.00,2016-08-24 17:09:00,
2016-08-24 13:14:00,86.5,76.8,30.17,SSW,213,3.0,9.0,73,0.00,,FEW070,0.00,984.00,VWS V15.00,2016-08-24 17:14:00,
2016-08-24 13:19:00,86.9,76.4,30.17,SSE,164,1.5,9.0,71,0.00,,FEW070,0.00,308.00,VWS V15.00,2016-08-24 17:19:00,
2016-08-24 13:24:00,87.1,76.6,30.16,WSW,246,3.0,9.0,71,0.00,,FEW070,0.00,731.00,VWS V15.00,2016-08-24 17:24:00,
2016-08-24 13:29:00,87.0,76.5,30.16,SSE,157,7.5,9.0,71,0.00,,FEW070,0.00,373.00,VWS V15.00,2016-08-24 17:29:00,
2016-08-24 13:34:00,86.9,76.4,30.16,SSE,157,3.0,9.0,71,0.00,,FEW070,0.00,1007.00,VWS V15.00,2016-08-24 17:34:00,
2016-08-24 13:39:00,86.6,76.1,30.16,East,93,9.0,9.0,71,0.00,,FEW070,0.00,276.00,VWS V15.00,2016-08-24 17:39:00,
2016-08-24 13:44:00,85.9,75.8,30.16,SW,234,4.5,9.0,72,0.00,,FEW070,0.00,420.00,VWS V15.00,2016-08-24 17:44:00,
2016-08-24 13:49:00,85.5,75.4,30.15,South,178,4.5,9.0,72,0.00,,FEW070,0.00,381.00,VWS V15.00,2016-08-24 17:49:00,
2016-08-24 13:55:00,85.3,76.1,30.15,SSE,157,1.5,9.0,74,0.00,,FEW070,0.00,366.00,VWS V15.00,2016-08-24 17:55:00,
2016-08-24 14:00:00,85.0,75.8,30.15,SW,227,1.5,9.0,74,0.00,,FEW070,0.00,387.00,VWS V15.00,2016-08-24 18:00:00,
2016-08-24 14:05:00,84.9,75.7,30.15,South,188,6.0,9.0,74,0.00,,FEW070,0.00,403.00,VWS V15.00,2016-08-24 18:05:00,
2016-08-24 14:10:00,84.9,76.1,30.15,SSE,168,1.5,9.0,75,0.00,,FEW070,0.00,383.00,VWS V15.00,2016-08-24 18:10:00,
2016-08-24 14:15:00,84.9,75.7,30.15,South,172,6.0,9.0,74,0.00,,FEW070,0.00,350.00,VWS V15.00,2016-08-24 18:15:00,
2016-08-24 14:20:00,85.1,76.3,30.15,SE,133,4.5,9.0,75,0.00,,FEW070,0.00,434.00,VWS V15.00,2016-08-24 18:20:00,
2016-08-24 14:30:00,85.6,76.8,30.14,South,178,1.5,9.0,75,0.00,,FEW070,0.00,410.00,VWS V15.00,2016-08-24 18:30:00,
2016-08-24 14:35:00,85.6,76.4,30.14,SE,130,6.0,9.0,74,0.00,,FEW070,0.00,399.00,VWS V15.00,2016-08-24 18:35:00,
2016-08-24 14:40:00,85.7,76.5,30.14,SE,144,4.5,9.0,74,0.00,,FEW070,0.00,381.00,VWS V15.00,2016-08-24 18:40:00,
2016-08-24 14:45:00,85.7,76.5,30.13,SSW,208,3.0,9.0,74,0.00,,FEW070,0.00,341.00,VWS V15.00,2016-08-24 18:45:00,
2016-08-24 14:50:00,85.7,76.5,30.13,ESE,103,3.0,9.0,74,0.00,,FEW070,0.00,322.00,VWS V15.00,2016-08-24 18:50:00,
2016-08-24 14:55:00,85.7,76.5,30.13,South,181,1.5,9.0,74,0.00,,FEW070,0.00,350.00,VWS V15.00,2016-08-24 18:55:00,
2016-08-24 15:00:00,85.7,76.5,30.13,SW,227,3.0,9.0,74,0.00,,FEW070,0.00,396.00,VWS V15.00,2016-08-24 19:00:00,
2016-08-24 15:05:00,85.8,76.6,30.12,SSE,166,4.5,9.0,74,0.00,,FEW070,0.00,496.00,VWS V15.00,2016-08-24 19:05:00,
2016-08-24 15:11:00,85.9,76.2,30.12,South,173,1.5,9.0,73,0.00,,FEW070,0.00,403.00,VWS V15.00,2016-08-24 19:11:00,
2016-08-24 15:16:00,86.0,76.3,30.12,South,173,3.0,9.0,73,0.00,,FEW070,0.00,369.00,VWS V15.00,2016-08-24 19:16:00,
2016-08-24 15:21:00,85.9,76.7,30.12,SSW,198,0.0,9.0,74,0.00,,FEW070,0.00,295.00,VWS V15.00,2016-08-24 19:21:00,
2016-08-24 15:26:00,86.0,76.8,30.12,SSE,161,1.5,9.0,74,0.00,,FEW070,0.00,338.00,VWS V15.00,2016-08-24 19:26:00,
2016-08-24 15:36:00,86.0,76.3,30.11,SE,145,0.0,9.0,73,0.00,,FEW070,0.00,232.00,VWS V15.00,2016-08-24 19:36:00,
2016-08-24 15:41:00,86.0,76.3,30.11,SW,233,0.0,9.0,73,0.00,,FEW070,0.00,260.00,VWS V15.00,2016-08-24 19:41:00,
2016-08-24 15:46:00,85.9,76.2,30.11,WSW,256,1.5,9.0,73,0.00,,FEW070,0.00,243.00,VWS V15.00,2016-08-24 19:46:00,
2016-08-24 15:51:00,85.9,76.7,30.11,SSW,196,3.0,9.0,74,0.00,,FEW070,0.00,260.00,VWS V15.00,2016-08-24 19:51:00,
2016-08-24 15:56:00,85.9,76.7,30.11,South,176,0.0,9.0,74,0.00,,FEW070,0.00,399.00,VWS V15.00,2016-08-24 19:56:00,
2016-08-24 16:01:00,86.1,76.8,30.11,South,178,3.0,9.0,74,0.00,,FEW070,0.00,548.00,VWS V15.00,2016-08-24 20:01:00,
2016-08-24 16:06:00,86.5,77.2,30.10,ESE,112,3.0,9.0,74,0.00,,FEW070,0.00,427.00,VWS V15.00,2016-08-24 20:06:00,
2016-08-24 16:12:00,86.7,77.4,30.10,SW,219,6.0,9.0,74,0.00,,FEW070,0.00,373.00,VWS V15.00,2016-08-24 20:12:00,
2016-08-24 16:17:00,86.8,77.1,30.09,SE,136,9.0,9.0,73,0.00,,FEW070,0.00,411.00,VWS V15.00,2016-08-24 20:17:00,
2016-08-24 16:22:00,86.9,77.2,30.10,South,171,0.0,9.0,73,0.00,,FEW070,0.00,457.00,VWS V15.00,2016-08-24 20:22:00,
2016-08-24 16:27:00,87.2,77.5,30.10,SE,139,1.5,9.0,73,0.00,,FEW070,0.00,547.00,VWS V15.00,2016-08-24 20:27:00,
2016-08-24 16:32:00,87.6,77.0,30.10,SE,126,7.5,9.0,71,0.00,,FEW070,0.00,598.00,VWS V15.00,2016-08-24 20:32:00,
2016-08-24 16:37:00,87.7,77.6,30.10,ESE,115,3.0,9.0,72,0.00,,FEW070,0.00,262.00,VWS V15.00,2016-08-24 20:37:00,
2016-08-24 16:42:00,87.8,77.2,30.11,SSE,163,6.0,9.0,71,0.00,,FEW070,0.00,257.00,VWS V15.00,2016-08-24 20:42:00,
2016-08-24 16:47:00,87.7,77.1,30.10,SSW,196,4.5,9.0,71,0.00,,FEW070,0.00,220.00,VWS V15.00,2016-08-24 20:47:00,
2016-08-24 16:52:00,87.5,76.5,30.10,WNW,291,6.0,9.0,70,0.00,,FEW070,0.00,199.00,VWS V15.00,2016-08-24 20:52:00,
2016-08-24 16:57:00,87.3,76.3,30.10,SSE,163,6.0,9.0,70,0.00,,FEW070,0.00,190.00,VWS V15.00,2016-08-24 20:57:00,
2016-08-24 17:02:00,87.1,75.7,30.10,SSW,212,0.0,9.0,69,0.00,,FEW070,0.00,183.00,VWS V15.00,2016-08-24 21:02:00,
2016-08-24 17:07:00,86.9,75.9,30.10,WSW,245,6.0,9.0,70,0.00,,FEW070,0.00,193.00,VWS V15.00,2016-08-24 21:07:00,
2016-08-24 17:17:00,86.8,76.3,30.09,SSE,148,1.5,9.0,71,0.00,,FEW070,0.00,185.00,VWS V15.00,2016-08-24 21:17:00,
2016-08-24 17:23:00,86.7,76.2,30.09,SSW,205,1.5,9.0,71,0.00,,FEW070,0.00,167.00,VWS V15.00,2016-08-24 21:23:00,
2016-08-24 17:28:00,86.7,76.2,30.09,SE,142,7.5,9.0,71,0.00,,FEW070,0.00,144.00,VWS V15.00,2016-08-24 21:28:00,
2016-08-24 17:33:00,86.6,76.5,30.09,South,188,6.0,9.0,72,0.00,,FEW070,0.00,146.00,VWS V15.00,2016-08-24 21:33:00,
2016-08-24 17:38:00,86.5,76.4,30.09,WSW,248,6.0,9.0,72,0.00,,FEW070,0.00,132.00,VWS V15.00,2016-08-24 21:38:00,
2016-08-24 17:43:00,86.3,76.6,30.09,SE,132,1.5,9.0,73,0.00,,FEW070,0.00,116.00,VWS V15.00,2016-08-24 21:43:00,
2016-08-24 17:48:00,86.1,76.4,30.09,SW,214,0.0,9.0,73,0.00,,FEW070,0.00,98.00,VWS V15.00,2016-08-24 21:48:00,
2016-08-24 17:53:00,86.0,76.8,30.09,South,175,0.0,9.0,74,0.00,,FEW070,0.00,84.00,VWS V15.00,2016-08-24 21:53:00,
2016-08-24 17:58:00,85.8,76.6,30.09,SE,146,3.0,9.0,74,0.00,,FEW070,0.00,72.00,VWS V15.00,2016-08-24 21:58:00,
2016-08-24 18:03:00,85.6,76.8,30.09,SSE,161,4.5,9.0,75,0.00,,FEW070,0.00,62.00,VWS V15.00,2016-08-24 22:03:00,
2016-08-24 18:08:00,85.4,76.6,30.09,SSW,209,0.0,9.0,75,0.00,,FEW070,0.00,54.00,VWS V15.00,2016-08-24 22:08:00,
2016-08-24 18:13:00,85.3,76.9,30.09,South,181,1.5,9.0,76,0.00,,FEW070,0.00,47.00,VWS V15.00,2016-08-24 22:13:00,
2016-08-24 18:19:00,85.1,76.7,30.09,SE,138,0.0,9.0,76,0.00,,FEW070,0.00,44.00,VWS V15.00,2016-08-24 22:19:00,
2016-08-24 18:24:00,85.0,76.6,30.09,SSE,159,0.0,9.0,76,0.00,,FEW070,0.00,42.00,VWS V15.00,2016-08-24 22:24:00,
2016-08-24 18:29:00,84.8,76.8,30.09,SSE,150,0.0,9.0,77,0.00,,FEW070,0.00,39.00,VWS V15.00,2016-08-24 22:29:00,
2016-08-24 18:34:00,84.6,76.6,30.08,ESE,113,4.5,9.0,77,0.00,,FEW070,0.00,35.00,VWS V15.00,2016-08-24 22:34:00,
2016-08-24 18:39:00,84.4,76.4,30.08,South,178,1.5,9.0,77,0.00,,FEW070,0.00,33.00,VWS V15.00,2016-08-24 22:39:00,
2016-08-24 18:44:00,84.3,76.3,30.08,SSE,162,0.0,9.0,77,0.00,,FEW070,0.00,32.00,VWS V15.00,2016-08-24 22:44:00,
2016-08-24 18:49:00,84.1,76.5,30.08,SW,236,0.0,9.0,78,0.00,,FEW070,0.00,30.00,VWS V15.00,2016-08-24 22:49:00,
2016-08-24 18:54:00,84.0,76.4,30.08,South,169,3.0,9.0,78,0.00,,FEW070,0.00,26.00,VWS V15.00,2016-08-24 22:54:00,
2016-08-24 18:59:00,83.9,76.3,30.08,SW,225,6.0,9.0,78,0.00,,FEW070,0.00,25.00,VWS V15.00,2016-08-24 22:59:00,
2016-08-24 19:04:00,83.7,76.1,30.08,South,182,0.0,9.0,78,0.00,,FEW070,0.00,23.00,VWS V15.00,2016-08-24 23:04:00,
2016-08-24 19:09:00,83.6,76.4,30.08,SSW,192,0.0,9.0,79,0.00,,FEW070,0.00,21.00,VWS V15.00,2016-08-24 23:09:00,
2016-08-24 19:14:00,83.5,76.3,30.08,SW,232,4.5,9.0,79,0.00,,FEW070,0.00,19.00,VWS V15.00,2016-08-24 23:14:00,
2016-08-24 19:19:00,83.4,76.2,30.08,South,180,6.0,9.0,79,0.00,,FEW070,0.00,18.00,VWS V15.00,2016-08-24 23:19:00,
2016-08-24 19:24:00,83.2,76.0,30.08,South,169,3.0,9.0,79,0.00,,FEW070,0.00,16.00,VWS V15.00,2016-08-24 23:24:00,
2016-08-24 19:29:00,83.2,76.0,30.07,South,171,0.0,9.0,79,0.00,,FEW070,0.00,14.00,VWS V15.00,2016-08-24 23:29:00,
2016-08-24 19:35:00,83.0,75.8,30.07,ESE,115,4.5,9.0,79,0.00,,FEW070,0.00,12.00,VWS V15.00,2016-08-24 23:35:00,
2016-08-24 19:40:00,82.9,76.1,30.07,SE,140,3.0,9.0,80,0.00,,FEW070,0.00,11.00,VWS V15.00,2016-08-24 23:40:00,
2016-08-24 19:45:00,82.8,76.0,30.07,SSE,167,6.0,9.0,80,0.00,,FEW070,0.00,9.00,VWS V15.00,2016-08-24 23:45:00,
2016-08-24 19:50:00,82.8,76.0,30.07,SE,144,9.0,9.0,80,0.00,,FEW070,0.00,7.00,VWS V15.00,2016-08-24 23:50:00,
2016-08-24 19:55:00,82.7,75.9,30.07,South,171,1.5,9.0,80,0.00,,FEW070,0.00,5.00,VWS V15.00,2016-08-24 23:55:00,
2016-08-24 20:00:00,82.6,75.8,30.07,South,176,6.0,9.0,80,0.00,,FEW070,0.00,5.00,VWS V15.00,2016-08-25 00:00:00,
2016-08-24 20:05:00,82.5,75.7,30.07,SW,215,1.5,9.0,80,0.00,,FEW070,0.00,0.00,VWS V15.00,2016-08-25 00:05:00,
2016-08-24 20:10:00,82.4,75.6,30.07,WSW,249,1.5,9.0,80,0.00,,FEW070,0.00,0.00,VWS V15.00,2016-08-25 00:10:00,
2016-08-24 20:15:00,82.4,75.6,30.06,WSW,252,3.0,9.0,80,0.00,,FEW070,0.00,0.00,VWS V15.00,2016-08-25 00:15:00,
2016-08-24 20:20:00,82.3,75.5,30.07,SE,130,0.0,9.0,80,0.00,,FEW070,0.00,0.00,VWS V15.00,2016-08-25 00:20:00,
2016-08-24 20:25:00,82.3,75.5,30.07,WSW,247,1.5,9.0,80,0.00,,FEW070,0.00,0.00,VWS V15.00,2016-08-25 00:25:00,
2016-08-24 20:30:00,82.2,75.8,30.07,South,175,1.5,9.0,81,0.00,,FEW070,0.00,0.00,VWS V15.00,2016-08-25 00:30:00,
2016-08-24 20:35:00,82.1,75.7,30.07,SSW,203,3.0,9.0,81,0.00,,FEW070,0.00,0.00,VWS V15.00,2016-08-25 00:35:00,
2016-08-24 20:40:00,82.1,75.7,30.07,SW,231,7.5,9.0,81,0.00,,FEW070,0.00,0.00,VWS V15.00,2016-08-25 00:40:00,
2016-08-24 20:46:00,82.0,75.6,30.07,South,175,0.0,9.0,81,0.00,,FEW070,0.00,0.00,VWS V15.00,2016-08-25 00:46:00,
2016-08-24 20:51:00,82.0,75.6,30.07,SW,223,3.0,9.0,81,0.00,,FEW070,0.00,0.00,VWS V15.00,2016-08-25 00:51:00,
2016-08-24 20:56:00,81.9,75.5,30.07,West,259,0.0,9.0,81,0.00,,FEW070,0.00,0.00,VWS V15.00,2016-08-25 00:56:00,
2016-08-24 21:01:00,81.9,75.5,30.07,SW,223,7.5,9.0,81,0.00,,FEW070,0.00,0.00,VWS V15.00,2016-08-25 01:01:00,
2016-08-24 21:06:00,81.8,75.4,30.07,SSW,203,4.5,9.0,81,0.00,,FEW070,0.00,0.00,VWS V15.00,2016-08-25 01:06:00,
2016-08-24 21:11:00,81.8,75.4,30.07,SSW,207,0.0,9.0,81,0.00,,FEW070,0.00,0.00,VWS V15.00,2016-08-25 01:11:00,
2016-08-24 21:16:00,81.7,75.3,30.07,South,177,0.0,9.0,81,0.00,,FEW070,0.00,0.00,VWS V15.00,2016-08-25 01:16:00,
2016-08-24 21:21:00,81.6,75.2,30.07,SSW,205,0.0,9.0,81,0.00,,FEW070,0.00,0.00,VWS V15.00,2016-08-25 01:21:00,
2016-08-24 21:26:00,81.6,75.2,30.07,SW,218,6.0,9.0,81,0.00,,FEW070,0.00,0.00,VWS V15.00,2016-08-25 01:26:00,
2016-08-24 21:31:00,81.5,75.1,30.08,WSW,250,1.5,9.0,81,0.00,,FEW070,0.00,0.00,VWS V15.00,2016-08-25 01:31:00,
2016-08-24 21:36:00,81.4,75.0,30.07,SW,227,0.0,9.0,81,0.00,,FEW070,0.00,0.00,VWS V15.00,2016-08-25 01:36:00,
2016-08-24 21:41:00,81.4,75.4,30.07,SW,230,1.5,9.0,82,0.00,,FEW070,0.00,0.00,VWS V15.00,2016-08-25 01:41:00,
2016-08-24 21:46:00,81.3,75.3,30.08,South,189,3.0,9.0,82,0.00,,FEW070,0.00,0.00,VWS V15.00,2016-08-25 01:46:00,
2016-08-24 21:51:00,81.2,75.2,30.08,SSW,210,1.5,9.0,82,0.00,,FEW070,0.00,0.00,VWS V15.00,2016-08-25 01:51:00,
2016-08-24 21:57:00,81.2,75.2,30.08,SW,227,1.5,9.0,82,0.00,,FEW070,0.00,0.00,VWS V15.00,2016-08-25 01:57:00,
2016-08-24 22:02:00,81.2,75.2,30.07,SE,143,3.0,9.0,82,0.00,,FEW070,0.00,0.00,VWS V15.00,2016-08-25 02:02:00,
2016-08-24 22:07:00,81.1,75.1,30.08,SSW,206,3.0,9.0,82,0.00,,FEW070,0.00,0.00,VWS V15.00,2016-08-25 02:07:00,
2016-08-24 22:17:00,81.1,75.1,30.08,SSW,205,4.5,9.0,82,0.00,,FEW070,0.00,0.00,VWS V15.00,2016-08-25 02:17:00,
2016-08-24 22:22:00,81.0,75.0,30.08,SSE,163,3.0,9.0,82,0.00,,FEW070,0.00,0.00,VWS V15.00,2016-08-25 02:22:00,
2016-08-24 22:27:00,80.9,74.9,30.08,West,272,0.0,9.0,82,0.00,,FEW070,0.00,0.00,VWS V15.00,2016-08-25 02:27:00,
2016-08-24 22:32:00,80.9,75.3,30.08,SW,227,1.5,9.0,83,0.00,,FEW070,0.00,0.00,VWS V15.00,2016-08-25 02:32:00,
2016-08-24 22:37:00,80.8,75.2,30.08,SSW,192,0.0,9.0,83,0.00,,FEW070,0.00,0.00,VWS V15.00,2016-08-25 02:37:00,
2016-08-24 22:42:00,80.7,75.1,30.08,SW,222,3.0,9.0,83,0.00,,FEW070,0.00,0.00,VWS V15.00,2016-08-25 02:42:00,
2016-08-24 22:47:00,80.5,74.9,30.08,SW,217,0.0,9.0,83,0.00,,FEW070,0.00,0.00,VWS V15.00,2016-08-25 02:47:00,